Location: Barcelona
(41.3829°N, 2.1774°E)
Time: 03:25:53
(UTC+00:00)

ISS - Pass Details

Date: 22 February 2026
Orbit: 417 x 426 km, 51.6° (Epoch: 16 March)

Event Time Altitude Azimuth Distance (km) Brightness Sun altitude
Exits shadow 05:27:37 11° 328° (NNW) 1,432 -1.4 -13.7°
Maximum altitude 05:29:13 14° 358° (N) 1,263 -1.4 -13.4°
Drops below altitude 10° 05:31:09 10° 33° (NNE) 1,499 -0.5 -13.0°
Sets 05:34:07 0° 60° (ENE) 2,403 1.1 -12.4°
